Showing default

HULIANWANG DIGUI-76, 65308

Orbit data source: Space-Track

HULIANWANG DIGUI-76, 65308 is a payload satellite owned by Zhongguo Xingwang (CN) in LEO that was launched on Mon, 25 Aug 2025 UTC via a CHANG ZHENG 8A launch vehicle from the Wenchang Satellite Launch Center (WSC). Payload-class satellites include a variety of spacecraft equipped with specific instruments for various scientific and technological missions. These include communications satellites like Starlink; space stations such as the ISS; scientific satellites like the Hubble; Earth observation satellites from companies like Planet Labs, Umbra, and HawkEye 360; GPS; miniature CubeSats for education and research; and military/defense satellites.

Loading next visibility...
Identifier
65308, 2025-187D
Orbit
LEO
Country
Flag of CNCN / PRC
Related business
Manufacturer
SECM
Mission
Operational Civil Communications
Bus & Motor
XINGWANG S, Unknown motor
Mass
~800 kg wet, ~800 kg dry
Launch date (UTC)
2025-08-25 (10 months ago)
Launch vehicle
CHANG ZHENG 8A
Launch site
Wenchang Satellite Launch Center (WSC)
Object type
Payload
Rocket body
Debris
Shape & HBR
Box + 2 Pan, 1.1 m
Radar Cross Section
5.935 m², Large (>1 m²)

Expand to show TLE details & history
Last TLE update: 11 hours ago

TLE from 11 hours ago
0 HULIANWANG DIGUI-76
1 65308U 25187D   26171.39527080 -.00000108  00000-0  33757-4 0  9995
2 65308  49.9988 194.4963 0000323 214.3521 145.7330 13.29324764 40124
Epoch: 2026-06-20T09:29Z
TLE epoch observation values (Epoch: 2026-06-20T09:29:11.397Z)
Latitude
-0.00002°
Longitude
143.58829°
Altitude
1,150.018 km
Speed
7.279 km/s
True Right ascension
12h 57m 59s
True Declination
0° 00' 00"
Sunlit
Object was in daylight at epoch
Visualization orbit readout
Latitude
Unknown
Longitude
Unknown
Altitude
Unknown
Speed
Unknown
Apparent Right ascension
Unknown
Apparent Declination
Unknown
Sunlit
N/A
Visualization observer readout
Local Sidereal Time
07:20:09
Azimuth
Unknown
Elevation
Unknown
Doppler factor
Unknown
Orbital elements
Apogee altitude
1,150.26 km
Perigee altitude
1,149.774 km
Semi-major axis
7,528.154 km
Eccentricity
0.00003
Inclination
49.9988°
RAAN
194.4963°
Arg. of periapsis
214.3521°
True anomaly
145.73508°
Mean anomaly
145.733°
Eccentric anomaly
145.73404°
Mean motion
3.32285 °/min
Orbital period
108.34 mins
BSTAR
0.000033757
Loading maneuver chart data...
Computing Atmospheric mass density...
Loading historical data...
Loading historical data...
Loading historical data...
Loading historical data...
Loading historical data...
Loading historical data...
Loading historical data...

Documentation

Showing up to 5 results
|